Morris, MN

1:22 PM CDT on June 25, 2017 (GMT -0500)
Morris Municipal

Weather History for KMOX - October, 2012

Change the Weather History Date:

Sunday, October 28, 2012

  Actual Average Record
Temperature  
Mean Temperature 40 °F -  
Max Temperature 46 °F 47 °F 66 °F (2016)
Min Temperature 33 °F 30 °F 19 °F (2008)
Degree Days  
Heating Degree Days 26    
Moisture  
Dew Point 31 °F    
Average Humidity 75    
Maximum Humidity 87    
Minimum Humidity 57    
Precipitation  
Precipitation 0.00 in - - ()
Sea Level Pressure  
Sea Level Pressure 30.22 in    
Wind  
Wind Speed 8 mph (SSE)    
Max Wind Speed 15 mph    
Max Gust Speed -    
Visibility 9 miles    
Events Snow    
Averages and records for this station are not official NWS values.
T = Trace of Precipitation, MM = Missing Value Source: NWS Daily Summary

Daily Weather History Graph

Daily Weather History Graph

Search for Another Location

Airport or City:

Trip Planner

Search our weather history database for the weather conditions in past years. The results will help you decide how hot, cold, wet, or windy it might be!

Date:

Astronomy

Oct. 28, 2012 Rise Set
Actual Time 7:58 AM CDT 6:15 PM CDT
Civil Twilight 7:27 AM CDT 6:46 PM CDT
Nautical Twilight 6:53 AM CDT 7:21 PM CDT
Astronomical Twilight 6:18 AM CDT 7:55 PM CDT
Moon 5:34 PM CDT (10/28) 6:51 AM CDT (10/28)
Length of Visible Light 11h 18m
Length of Day
10h 17m
Waxing Gibbous, 99% of the Moon is Illuminated
Oct 28
Waxing Gibbous
Oct 29
Full
Nov 6
Last Quarter
Nov 13
New
Nov 20
First Quarter

Hourly Weather History & Observations

Time (CDT) Temp. Windchill Dew Point Humidity Pressure Visibility Wind Dir Wind Speed Gust Speed Precip Events Conditions
12:09 AM 33.8 °F 28.6 °F 28.4 °F 81% 30.26 in 3.0 mi South 5.8 mph - N/A Snow Light Snow
12:29 AM 33.8 °F 27.7 °F 28.4 °F 81% 30.26 in 10.0 mi South 6.9 mph - N/A Snow Light Snow
12:49 AM 33.8 °F 27.0 °F 28.4 °F 81% 30.26 in 7.0 mi South 8.1 mph - N/A Snow Light Snow
1:09 AM 33.8 °F 27.0 °F 30.2 °F 87% 30.26 in 7.0 mi South 8.1 mph - N/A Snow Light Snow
1:29 AM 33.8 °F 27.0 °F 30.2 °F 87% 30.25 in 7.0 mi SSE 8.1 mph - N/A Snow Light Snow
1:49 AM 33.8 °F 25.8 °F 30.2 °F 87% 30.25 in 10.0 mi SSE 10.4 mph - N/A   Overcast
2:09 AM 33.8 °F 27.0 °F 30.2 °F 87% 30.25 in 10.0 mi SSE 8.1 mph - N/A   Overcast
2:29 AM 33.8 °F 28.6 °F 30.2 °F 87% 30.25 in 10.0 mi SSE 5.8 mph - N/A   Overcast
2:49 AM 33.8 °F 27.7 °F 28.4 °F 81% 30.25 in 10.0 mi SSE 6.9 mph - N/A   Overcast
3:09 AM 33.8 °F 28.6 °F 28.4 °F 81% 30.25 in 10.0 mi South 5.8 mph - N/A   Overcast
3:29 AM 33.8 °F 27.0 °F 28.4 °F 81% 30.24 in 10.0 mi SSE 8.1 mph - N/A   Overcast
3:49 AM 33.8 °F 27.0 °F 28.4 °F 81% 30.24 in 10.0 mi SSE 8.1 mph - N/A Snow Light Snow
4:09 AM 33.8 °F 29.6 °F 28.4 °F 81% 30.24 in 7.0 mi SSE 4.6 mph - N/A Snow Light Snow
4:29 AM 33.8 °F 28.6 °F 28.4 °F 81% 30.24 in 10.0 mi SSE 5.8 mph - N/A   Overcast
4:49 AM 33.8 °F 28.6 °F 28.4 °F 81% 30.24 in 7.0 mi SSE 5.8 mph - N/A Snow Light Snow
5:09 AM 33.8 °F 28.6 °F 28.4 °F 81% 30.24 in 7.0 mi SSE 5.8 mph - N/A Snow Light Snow
5:29 AM 33.8 °F 28.6 °F 30.2 °F 87% 30.24 in 10.0 mi SSE 5.8 mph - N/A Snow Light Snow
5:49 AM 33.8 °F 28.6 °F 30.2 °F 87% 30.24 in 10.0 mi SSE 5.8 mph - N/A   Overcast
6:09 AM 33.8 °F 28.6 °F 30.2 °F 87% 30.25 in 7.0 mi SSE 5.8 mph - N/A Snow Light Snow
6:29 AM 33.8 °F 28.6 °F 30.2 °F 87% 30.25 in 10.0 mi SSE 5.8 mph - N/A Snow Light Snow
6:49 AM 33.8 °F 27.0 °F 30.2 °F 87% 30.25 in 10.0 mi SSE 8.1 mph - N/A Snow Light Snow
7:09 AM 33.8 °F 28.6 °F 30.2 °F 87% 30.25 in 10.0 mi SSE 5.8 mph - N/A Snow Light Snow
7:29 AM 33.8 °F 27.7 °F 30.2 °F 87% 30.25 in 10.0 mi SSE 6.9 mph - N/A   Overcast
7:49 AM 33.8 °F 27.7 °F 30.2 °F 87% 30.26 in 10.0 mi SSE 6.9 mph - N/A   Overcast
8:09 AM 33.8 °F 28.6 °F 30.2 °F 87% 30.26 in 10.0 mi SSE 5.8 mph - N/A   Overcast
8:29 AM 33.8 °F 27.0 °F 30.2 °F 87% 30.26 in 7.0 mi SSE 8.1 mph - N/A   Overcast
8:49 AM 33.8 °F 27.7 °F 30.2 °F 87% 30.26 in 5.0 mi SSE 6.9 mph - N/A   Overcast
9:29 AM 35.6 °F 28.0 °F 30.2 °F 81% 30.26 in 7.0 mi South 10.4 mph - N/A   Scattered Clouds
9:49 AM 35.6 °F 28.6 °F 32.0 °F 87% 30.26 in 7.0 mi SSE 9.2 mph - N/A   Scattered Clouds
10:09 AM 35.6 °F 28.6 °F 30.2 °F 81% 30.26 in 7.0 mi South 9.2 mph - N/A   Clear
10:29 AM 37.4 °F 30.8 °F 32.0 °F 81% 30.25 in 7.0 mi SSE 9.2 mph - N/A   Scattered Clouds
10:49 AM 37.4 °F 32.1 °F 32.0 °F 81% 30.25 in 10.0 mi SSE 6.9 mph - N/A   Scattered Clouds
11:09 AM 39.2 °F 33.6 °F 32.0 °F 75% 30.24 in 10.0 mi SSE 8.1 mph - N/A   Scattered Clouds
11:29 AM 39.2 °F 33.0 °F 32.0 °F 75% 30.24 in 10.0 mi SSE 9.2 mph - N/A   Scattered Clouds
11:49 AM 42.8 °F 38.0 °F 33.8 °F 70% 30.23 in 10.0 mi SSE 8.1 mph - N/A   Scattered Clouds
12:09 PM 41.0 °F 35.2 °F 32.0 °F 70% 30.23 in 10.0 mi SSE 9.2 mph - N/A   Scattered Clouds
12:29 PM 42.8 °F 38.0 °F 33.8 °F 70% 30.22 in 10.0 mi SE 8.1 mph - N/A   Mostly Cloudy
12:49 PM 42.8 °F 38.6 °F 32.0 °F 66% 30.22 in 10.0 mi SSE 6.9 mph - N/A   Mostly Cloudy
1:09 PM 42.8 °F 38.0 °F 32.0 °F 66% 30.22 in 10.0 mi SE 8.1 mph - N/A   Mostly Cloudy
1:29 PM 42.8 °F 37.0 °F 32.0 °F 66% 30.22 in 10.0 mi SE 10.4 mph - N/A   Mostly Cloudy
1:49 PM 42.8 °F 40.1 °F 32.0 °F 66% 30.21 in 10.0 mi ESE 4.6 mph - N/A   Mostly Cloudy
2:09 PM 44.6 °F 41.4 °F 32.0 °F 61% 30.21 in 10.0 mi ESE 5.8 mph - N/A   Mostly Cloudy
2:29 PM 44.6 °F 42.2 °F 32.0 °F 61% 30.20 in 10.0 mi ESE 4.6 mph - N/A   Mostly Cloudy
2:49 PM 46.4 °F 42.4 °F 32.0 °F 57% 30.19 in 10.0 mi SSE 8.1 mph - N/A   Mostly Cloudy
3:09 PM 46.4 °F 41.1 °F 32.0 °F 57% 30.19 in 10.0 mi SSE 11.5 mph - N/A   Scattered Clouds
3:29 PM 44.6 °F 40.2 °F 30.2 °F 57% 30.19 in 10.0 mi South 8.1 mph - N/A   Mostly Cloudy
3:49 PM 46.4 °F 41.1 °F 32.0 °F 57% 30.18 in 10.0 mi SE 11.5 mph - N/A   Overcast
4:09 PM 46.4 °F 41.9 °F 32.0 °F 57% 30.19 in 10.0 mi SSE 9.2 mph - N/A   Overcast
4:29 PM 46.4 °F 42.4 °F 32.0 °F 57% 30.18 in 10.0 mi SSE 8.1 mph - N/A   Overcast
4:49 PM 46.4 °F 41.5 °F 33.8 °F 62% 30.18 in 10.0 mi SE 10.4 mph - N/A   Overcast
5:09 PM 46.4 °F 41.9 °F 33.8 °F 62% 30.18 in 10.0 mi SE 9.2 mph - N/A   Overcast
5:29 PM 44.6 °F 39.7 °F 33.8 °F 66% 30.17 in 10.0 mi ESE 9.2 mph - N/A   Scattered Clouds
5:49 PM 44.6 °F 40.2 °F 33.8 °F 66% 30.17 in 10.0 mi ESE 8.1 mph - N/A   Mostly Cloudy
6:09 PM 42.8 °F 37.5 °F 33.8 °F 70% 30.17 in 10.0 mi SE 9.2 mph - N/A   Scattered Clouds
6:29 PM 42.8 °F 38.0 °F 33.8 °F 70% 30.18 in 10.0 mi SE 8.1 mph - N/A   Mostly Cloudy
6:49 PM 44.6 °F 39.7 °F 33.8 °F 66% 30.18 in 10.0 mi SE 9.2 mph - N/A   Overcast
7:09 PM 42.8 °F 37.0 °F 33.8 °F 70% 30.18 in 10.0 mi ESE 10.4 mph - N/A   Mostly Cloudy
7:29 PM 42.8 °F 37.0 °F 33.8 °F 70% 30.18 in 10.0 mi ESE 10.4 mph - N/A   Overcast
7:49 PM 42.8 °F 36.6 °F 33.8 °F 70% 30.18 in 10.0 mi SE 11.5 mph - N/A   Overcast
8:09 PM 41.0 °F 34.3 °F 33.8 °F 76% 30.18 in 10.0 mi ESE 11.5 mph - N/A   Overcast
8:49 PM 39.2 °F 31.6 °F 33.8 °F 81% 30.18 in 10.0 mi SE 12.7 mph - N/A   Mostly Cloudy
9:09 PM 39.2 °F 31.6 °F 32.0 °F 75% 30.18 in 10.0 mi SE 12.7 mph - N/A   Scattered Clouds
9:29 PM 39.2 °F 30.8 °F 32.0 °F 75% 30.18 in 10.0 mi SE 15.0 mph - N/A   Scattered Clouds
9:49 PM 39.2 °F 31.6 °F 32.0 °F 75% 30.19 in 10.0 mi SE 12.7 mph - N/A   Scattered Clouds
10:09 PM 39.2 °F 30.8 °F 30.2 °F 70% 30.19 in 10.0 mi SE 15.0 mph - N/A   Mostly Cloudy
10:29 PM 39.2 °F 31.2 °F 30.2 °F 70% 30.19 in 10.0 mi SE 13.8 mph - N/A   Scattered Clouds
10:49 PM 37.4 °F 28.5 °F 30.2 °F 75% 30.19 in 10.0 mi SSE 15.0 mph - N/A   Clear
11:09 PM 37.4 °F 28.9 °F 30.2 °F 75% 30.19 in 10.0 mi SSE 13.8 mph - N/A   Clear
11:29 PM 37.4 °F 28.9 °F 30.2 °F 75% 30.19 in 10.0 mi SSE 13.8 mph - N/A   Clear
11:49 PM 37.4 °F 28.5 °F 30.2 °F 75% 30.18 in 10.0 mi SSE 15.0 mph - N/A   Clear